Powrót do katalogu

UNISAT 7

AktywnyNaukaSSO
NORAD 47945·PAYLOAD·🇮🇹 Italy

Wystrzelony Mar 22, 2021 z Baikonur Cosmodrome

Loading…

Następne Przeloty (najbliższe 24 godziny)

TLE

ŚwieżeSource: Space-Track

Epoka: Sep 14, 2026, 12:59 UTC

1 47945U 21022P   26257.54163697  .00012216  00000-0  28201-3 0  9997
2 47945  97.3780 163.4882 0010596 107.3719 252.8689 15.42629977303622

Śledź UNISAT 7 w czasie rzeczywistym z AllMySat

Download on the App Store